{"data":{"norad_id":64178,"epoch":"2026-05-25T03:54:30.256416Z","epoch_age_seconds":57389,"freshness":"FRESH","line1":"1 64178U 25113J   26145.16285019  .00020085  00000+0  68845-3 0  9996","line2":"2 64178  53.1572  95.9083 0001125  77.5249 282.5878 15.30198246 56772","mean_motion":15.30198246,"eccentricity":0.0001125,"inclination_deg":53.1572,"raan_deg":95.9083,"arg_perigee_deg":77.5249,"mean_anomaly_deg":282.5878,"bstar":0.00068845,"rev_number":5677,"period_min":94.105453575327,"perigee_km":474.44930385518,"apogee_km":475.99130924915,"semimajor_km":6853.3573065522,"source":"CELESTRAK","updated_at":"2026-05-25T13:38:20.310795Z"}}